STARLINK-34206, 66098

Orbit data source: Space-Track

STARLINK-34206, 66098 is a payload satellite owned by SpaceX/Seattle (US) in LEO that was launched on Sun, 19 Oct 2025 UTC via an FALCON 9 launch vehicle from the Air Force Western Test Range (AFWTR). Payload-class satellites include a variety of spacecraft equipped with specific instruments for various scientific and technological missions. These include communications satellites like Starlink; space stations such as the ISS; scientific satellites like the Hubble; Earth observation satellites from companies like Planet Labs, Umbra, and HawkEye 360; GPS; miniature CubeSats for education and research; and military/defense satellites.

Loading next visibility...
Identifier
66098, 2025-236N
Orbit
LEO
Country
Flag of USUS
Related business
Manufacturer
SpaceX/Seattle
Mission
Operational Commercial Communications
Bus & Motor
STARLINK V2MO, Unknown motor
Mass
575 kg wet, ~530 kg dry
Launch date (UTC)
2025-10-19 (8 months ago)
Launch vehicle
FALCON 9
Launch site
Air Force Western Test Range (AFWTR)
Object type
Payload
Rocket body
Debris
Shape & HBR
Box + 2 Pan, 17.7 m
Radar Cross Section
36.964 m², Large (>1 m²)

Expand to show TLE details & history
Last TLE update: 15 hours ago

TLE from 15 hours ago
0 STARLINK-34206
1 66098U 25236N   26171.21826623  .00029822  00000-0  89008-3 0  9995
2 66098  53.1607 346.8289 0001360  84.3652 275.7506 15.34406453 38649
Epoch: 2026-06-20T05:14Z
TLE epoch observation values (Epoch: 2026-06-20T05:14:18.202Z)
Latitude
0.00002°
Longitude
-0.18298°
Altitude
463.492 km
Speed
7.636 km/s
True Right ascension
23h 07m 18s
True Declination
0° 00' 00"
Sunlit
Object was in daylight at epoch
Visualization orbit readout
Latitude
Unknown
Longitude
Unknown
Altitude
Unknown
Speed
Unknown
Apparent Right ascension
Unknown
Apparent Declination
Unknown
Sunlit
N/A
Visualization observer readout
Local Sidereal Time
07:18:38
Azimuth
Unknown
Elevation
Unknown
Doppler factor
Unknown
Orbital elements
Apogee altitude
463.871 km
Perigee altitude
462.01 km
Semi-major axis
6,841.078 km
Eccentricity
0.00014
Inclination
53.1607°
RAAN
346.8289°
Arg. of periapsis
84.3652°
True anomaly
275.73509°
Mean anomaly
275.7506°
Eccentric anomaly
275.74285°
Mean motion
3.8358 °/min
Orbital period
93.85 mins
BSTAR
0.00089008
Loading maneuver chart data...
Computing Atmospheric mass density...
Loading historical data...
Loading historical data...
Loading historical data...
Loading historical data...
Loading historical data...
Loading historical data...
Loading historical data...

Documentation

Showing up to 5 results
|